[[{"header":{"parameterUnit":"m.s-1","parameterCategory":1,"la1":30.2992,"la2":30.254,"lo1":-89.0895,"lo2":-89.0443,"dy":0.0025,"dx":0.0025,"nx":19,"ny":19,"refTime":"2026-05-10T21:00:00:Z","depth":0,"parameterNumber":2,"parameterNumberName":"U-component_of_WINDS"},"data":[0,0,0,0.1012,0.1014,0.112,0.1121,0.1238,0.1239,0,0,0,0,0,0,0,0,0,0,0,0.0969,0.097,0.1012,0.1014,0.112,0.1121,0.1238,0.1239,0,0,0,0,0,0,0,0,0,0,0,0.0969,0.097,0.097,0.1014,0.112,0.1121,0.1238,0.1164,0,0,0,0,0,0,0,0,0,0,0.1064,0.1014,0.097,0.097,0.1015,0.112,0.1121,0.1161,0.1169,0.1182,0,0.1191,0,0.1217,0.1246,0.1246,0,0,0,0.1022,0.1008,0.1046,0.097,0.1016,0.112,0.1075,0.1166,0.1174,0.1192,0.1193,0.1198,0.1219,0.1247,0.1247,0.1296,0.1295,0,0,0.1016,0.0983,0.104,0.1051,0.1034,0.1071,0.1078,0.1171,0.117,0.1194,0.1201,0.1221,0.1247,0.1248,0.1296,0.1296,0,0,0,0.0994,0.0978,0.1015,0.1046,0.1067,0.1074,0.1082,0.1166,0.1181,0.1203,0.1222,0.1248,0.1249,0.1296,0.1296,0.1254,0,0,0,0.0991,0.0965,0.1012,0.0992,0.1064,0.1118,0.1074,0.1174,0.1186,0.1222,0.1248,0.125,0.1296,0.1296,0.1256,0.124,0,0,0,0.0966,0.0963,0.0974,0.099,0.1035,0.1117,0.1137,0.1177,0.1197,0.1246,0.125,0.1296,0.1296,0.1257,0.1242,0.1241,0,0,0,0.093,0.0937,0.0973,0.0988,0.1034,0.109,0.1137,0.1181,0.1219,0.1248,0.1296,0.1296,0.1258,0.1244,0.1242,0.1233,0.1227,0,0,0.092,0.0934,0.0946,0.0981,0.1022,0.1077,0.1113,0.1179,0.1215,0.1266,0.1268,0.1255,0.1242,0.1242,0.1204,0.1198,0,0,0,0.0931,0.0938,0.0957,0.099,0.104,0.1082,0.1146,0.117,0.1216,0.1235,0.1256,0.125,0.1251,0.1248,0.1243,0.1245,0.1293,0.1293,0.1293,0.0868,0.0912,0.0933,0.099,0.1022,0.1087,0.1116,0.116,0.1197,0.1201,0.1216,0.1188,0.1183,0.118,0.1182,0.1216,0.1216,0.1216,0.1216,0.0855,0.0872,0.0919,0.0956,0.1003,0.1035,0.1097,0.1121,0.1157,0.1181,0.1184,0.1204,0.1173,0.1176,0.1213,0.1214,0.1214,0.1214,0.1215,0.0817,0.0833,0.0862,0.0913,0.0948,0.1006,0.1037,0.1079,0.1119,0.1122,0.1141,0.1142,0.1147,0.1128,0.1128,0.1128,0.1128,0.1128,0.1128,0.0766,0.08,0.0822,0.0874,0.09,0.0939,0.1004,0.103,0.107,0.1098,0.1099,0.1133,0.1162,0.1167,0.1127,0.1127,0.1127,0.1127,0.1127,0.0735,0.0748,0.0781,0.0806,0.087,0.09,0.0954,0.1004,0.1032,0.1045,0.108,0.1094,0.1112,0.1116,0.1121,0.1071,0.1071,0.1071,0.1071,0.0701,0.0715,0.0756,0.0794,0.0837,0.0887,0.0921,0.097,0.1024,0.1044,0.1057,0.1067,0.1069,0.1086,0.1091,0.1096,0.1041,0.1041,0.1041,0.0684,0.0702,0.0723,0.0775,0.0828,0.0872,0.0905,0.0945,0.1009,0.104,0.1059,0.1061,0.1078,0.1081,0.1111,0.1118,0.1128,0,0]},{"header":{"parameterUnit":"m.s-1","parameterCategory":1,"la1":30.2992,"la2":30.254,"lo1":-89.0895,"lo2":-89.0443,"dy":0.0025,"dx":0.0025,"nx":19,"ny":19,"refTime":"2026-05-10T21:00:00:Z","depth":0,"parameterNumber":3,"parameterNumberName":"V-component_of_WINDS"},"data":[0,0,0,1.7559,1.7559,1.7566,1.7566,1.7585,1.7585,0,0,0,0,0,0,0,0,0,0,0,1.7562,1.7563,1.7559,1.7559,1.7566,1.7566,1.7585,1.7585,0,0,0,0,0,0,0,0,0,0,0,1.7562,1.7563,1.7563,1.7559,1.7566,1.7566,1.7584,1.7576,0,0,0,0,0,0,0,0,0,0,1.7567,1.7577,1.7563,1.7563,1.7559,1.7566,1.7566,1.7575,1.7576,1.7586,0,1.7596,0,1.7591,1.7587,1.7587,0,0,0,1.7555,1.7576,1.7572,1.7563,1.7559,1.7566,1.7561,1.7576,1.7577,1.7587,1.7596,1.7596,1.7591,1.7587,1.7587,1.7656,1.7656,0,0,1.7554,1.7567,1.7571,1.7573,1.7573,1.7561,1.7562,1.7576,1.7586,1.7596,1.7596,1.7591,1.7587,1.7587,1.7655,1.7656,0,0,0,1.7556,1.7567,1.7563,1.7573,1.7573,1.7562,1.7562,1.7586,1.7583,1.7596,1.7591,1.7587,1.7588,1.7655,1.7655,1.7694,0,0,0,1.7556,1.7568,1.7563,1.7571,1.7573,1.758,1.7571,1.7582,1.7584,1.7591,1.7587,1.7588,1.7654,1.7655,1.7692,1.7711,0,0,0,1.756,1.7568,1.7571,1.7571,1.7575,1.7579,1.7577,1.7582,1.7581,1.7587,1.7588,1.7654,1.7655,1.769,1.7707,1.7733,0,0,0,1.7568,1.7606,1.7572,1.7612,1.7575,1.7603,1.7577,1.7597,1.7607,1.7587,1.7654,1.7655,1.7689,1.7705,1.7731,1.7757,1.7769,0,0,1.7623,1.7613,1.7635,1.7605,1.7643,1.7601,1.7644,1.7641,1.7629,1.7648,1.7649,1.7693,1.7707,1.7732,1.7832,1.7841,0,0,0,1.7657,1.7673,1.768,1.769,1.7688,1.7689,1.7677,1.7676,1.7691,1.7641,1.7708,1.7716,1.7731,1.7743,1.7751,1.7763,1.7661,1.7661,1.7661,1.7752,1.7736,1.7772,1.7756,1.7766,1.7754,1.7761,1.7757,1.7738,1.7754,1.7759,1.7821,1.7836,1.7842,1.7855,1.7771,1.7771,1.7772,1.7772,1.7831,1.7851,1.7824,1.7849,1.7832,1.7853,1.7843,1.7828,1.7845,1.7816,1.7828,1.7798,1.7853,1.7863,1.7774,1.7774,1.7774,1.7773,1.7773,1.7892,1.7899,1.7897,1.7909,1.7921,1.7904,1.7921,1.7905,1.7889,1.7901,1.7905,1.7904,1.7902,1.7904,1.7904,1.7904,1.7904,1.7904,1.7905,1.7957,1.7953,1.797,1.7971,1.7975,1.7979,1.7967,1.7971,1.7971,1.7957,1.7957,1.7936,1.7861,1.7843,1.7908,1.7907,1.7907,1.7907,1.7906,1.8044,1.8021,1.8048,1.8052,1.8052,1.8065,1.8043,1.8052,1.8052,1.8062,1.8038,1.7985,1.7974,1.7967,1.7952,1.8041,1.8041,1.8041,1.8041,1.8096,1.8089,1.8111,1.8119,1.8125,1.8108,1.8138,1.8129,1.8117,1.8116,1.8101,1.8079,1.8073,1.8065,1.8056,1.8042,1.8152,1.8152,1.8152,1.8149,1.8141,1.817,1.8157,1.8156,1.8155,1.8183,1.8194,1.8175,1.8156,1.8115,1.8111,1.8076,1.8065,1.8046,1.8033,1.8006,0,0]}]]